• In Lithuania
  • List of Countries
  • For 7 days
  • Water Temperature
  • Satellite Maps
  • Weather Map
  • Weather Widgets
  • user-avatar
    Login

    Hourly Weather Kitzbuhel

    Today, 18 August, Friday

    Time Temperature Precipitation Wind Pressure Humidity
    00:00 +16°C° 0 mm 1 mps 680 mmHg 86%
    01:00 +16°C° 0 mm 2 mps 680 mmHg 86%
    02:00 +16°C° 0 mm 1 mps 680 mmHg 86%
    03:00 +15°C° 0 mm 1 mps 680 mmHg 87%
    04:00 +15°C° 0 mm 1 mps 680 mmHg 87%
    05:00 +16°C° 0 mm 1 mps 680 mmHg 85%
    06:00 +18°C° 0 mm 1 mps 681 mmHg 83%
    07:00 +19°C° 0 mm 1 mps 681 mmHg 81%
    08:00 +22°C° 0 mm 1 mps 681 mmHg 72%
    09:00 +24°C° 0 mm 1 mps 681 mmHg 64%
    10:00 +27°C° 0 mm 1 mps 682 mmHg 55%
    11:00 +28°C° 0 mm 1 mps 681 mmHg 52%
    12:00 +28°C° 0 mm 1 mps 681 mmHg 50%
    13:00 +29°C° 0 mm 2 mps 681 mmHg 47%
    14:00 +29°C° 0 mm 2 mps 680 mmHg 51%
    15:00 +28°C° 0 mm 2 mps 680 mmHg 54%
    16:00 +27°C° 0 mm 2 mps 679 mmHg 58%
    17:00 +26°C° 0.5 mm 2 mps 679 mmHg 67%
    18:00 +24°C° 0.5 mm 2 mps 678 mmHg 76%
    19:00 +22°C° 0.5 mm 1 mps 678 mmHg 85%
    20:00 +19°C° 1.6 mm 2 mps 678 mmHg 89%
    21:00 +18°C° 1.6 mm 2 mps 678 mmHg 93%
    22:00 +17°C° 1.6 mm 2 mps 678 mmHg 97%
    23:00 +17°C° 0.9 mm 2 mps 679 mmHg 97%

    Tomorrow, 19 August, Saturday

    Time Temperature Precipitation Wind Pressure Humidity
    00:00 +16°C° 0.9 mm 2 mps 679 mmHg 97%
    01:00 +16°C° 0.9 mm 1 mps 679 mmHg 98%
    02:00 +16°C° 3.2 mm 2 mps 679 mmHg 98%
    03:00 +15°C° 3.2 mm 2 mps 679 mmHg 98%
    04:00 +15°C° 3.2 mm 2 mps 678 mmHg 98%
    05:00 +14°C° 4.7 mm 2 mps 678 mmHg 98%
    06:00 +14°C° 4.7 mm 2 mps 678 mmHg 97%
    07:00 +13°C° 4.7 mm 2 mps 678 mmHg 97%
    08:00 +13°C° 2.7 mm 2 mps 679 mmHg 97%
    09:00 +12°C° 2.7 mm 2 mps 679 mmHg 96%
    10:00 +12°C° 2.7 mm 2 mps 679 mmHg 96%
    11:00 +13°C° 1.3 mm 2 mps 679 mmHg 95%
    12:00 +13°C° 1.3 mm 2 mps 679 mmHg 94%
    13:00 +13°C° 1.3 mm 2 mps 679 mmHg 93%
    14:00 +14°C° 0.3 mm 1 mps 680 mmHg 90%
    15:00 +15°C° 0.3 mm 1 mps 680 mmHg 87%
    16:00 +15°C° 0.3 mm 1 mps 680 mmHg 83%
    17:00 +14°C° 0.1 mm 1 mps 680 mmHg 85%
    18:00 +14°C° 0.1 mm 1 mps 680 mmHg 88%
    19:00 +13°C° 0.1 mm 1 mps 680 mmHg 90%
    20:00 +12°C° 0.1 mm 1 mps 680 mmHg 92%
    21:00 +12°C° 0.1 mm 1 mps 680 mmHg 94%
    22:00 +11°C° 0.1 mm 1 mps 680 mmHg 96%
    23:00 +11°C° 0 mm 1 mps 680 mmHg 96%

    Day after tomorrow, 20 August, Sunday

    Time Temperature Precipitation Wind Pressure Humidity
    00:00 +10°C° 0 mm 1 mps 680 mmHg 96%
    01:00 +10°C° 0 mm 1 mps 680 mmHg 96%
    02:00 +10°C° 0 mm 1 mps 680 mmHg 96%
    03:00 +10°C° 0 mm 1 mps 680 mmHg 96%
    04:00 +10°C° 0 mm 1 mps 680 mmHg 95%
    05:00 +11°C° 0.1 mm 1 mps 681 mmHg 94%
    06:00 +11°C° 0.1 mm 1 mps 681 mmHg 92%
    07:00 +12°C° 0.1 mm 1 mps 681 mmHg 91%
    08:00 +13°C° 0.1 mm 1 mps 681 mmHg 85%
    09:00 +14°C° 0.1 mm 1 mps 681 mmHg 80%
    10:00 +15°C° 0.1 mm 1 mps 682 mmHg 74%
    11:00 +16°C° 0.1 mm 2 mps 682 mmHg 69%
    12:00 +17°C° 0.1 mm 2 mps 682 mmHg 64%
    13:00 +18°C° 0.1 mm 2 mps 682 mmHg 59%
    14:00 +18°C° 0.1 mm 2 mps 682 mmHg 60%
    15:00 +17°C° 0.1 mm 2 mps 682 mmHg 61%
    16:00 +17°C° 0.1 mm 2 mps 681 mmHg 62%
    17:00 +16°C° 0.1 mm 2 mps 681 mmHg 71%
    18:00 +14°C° 0.1 mm 2 mps 681 mmHg 80%
    19:00 +12°C° 0.1 mm 1 mps 681 mmHg 89%
    20:00 +11°C° 0 mm 1 mps 681 mmHg 91%
    21:00 +11°C° 0 mm 1 mps 681 mmHg 92%
    22:00 +10°C° 0 mm 1 mps 682 mmHg 94%
    23:00 +10°C° 0 mm 1 mps 682 mmHg 94%

    21 August, Monday

    Time Temperature Precipitation Wind Pressure Humidity
    00:00 +9°C° 0 mm 1 mps 681 mmHg 94%
    01:00 +9°C° 0 mm 1 mps 681 mmHg 94%
    02:00 +8°C° 0 mm 1 mps 681 mmHg 92%
    03:00 +8°C° 0 mm 1 mps 681 mmHg 91%
    04:00 +8°C° 0 mm 1 mps 681 mmHg 90%
    05:00 +9°C° 0 mm 1 mps 681 mmHg 86%
    06:00 +10°C° 0 mm 1 mps 681 mmHg 82%
    07:00 +11°C° 0 mm 1 mps 682 mmHg 78%
    08:00 +14°C° 0 mm 1 mps 682 mmHg 69%
    09:00 +16°C° 0 mm 1 mps 682 mmHg 61%
    10:00 +19°C° 0 mm 1 mps 683 mmHg 52%
    11:00 +19°C° 0 mm 2 mps 683 mmHg 50%
    12:00 +20°C° 0 mm 2 mps 682 mmHg 48%
    13:00 +20°C° 0 mm 2 mps 682 mmHg 46%
    14:00 +20°C° 0 mm 2 mps 682 mmHg 49%
    15:00 +20°C° 0 mm 2 mps 682 mmHg 52%
    16:00 +19°C° 0 mm 2 mps 682 mmHg 54%
    17:00 +17°C° 0 mm 2 mps 681 mmHg 65%
    18:00 +15°C° 0 mm 1 mps 681 mmHg 75%
    19:00 +13°C° 0 mm 1 mps 681 mmHg 86%
    20:00 +13°C° 0 mm 1 mps 681 mmHg 88%
    21:00 +12°C° 0 mm 1 mps 681 mmHg 90%
    22:00 +11°C° 0 mm 1 mps 681 mmHg 92%
    23:00 +11°C° 0 mm 1 mps 681 mmHg 92%

    22 August, Tuesday

    Time Temperature Precipitation Wind Pressure Humidity
    00:00 +10°C° 0 mm 1 mps 681 mmHg 92%
    01:00 +10°C° 0 mm 1 mps 681 mmHg 93%
    02:00 +10°C° 0 mm 1 mps 681 mmHg 92%
    03:00 +10°C° 0 mm 1 mps 680 mmHg 91%
    04:00 +9°C° 0 mm 1 mps 680 mmHg 90%
    05:00 +11°C° 0 mm 1 mps 680 mmHg 86%
    06:00 +12°C° 0 mm 1 mps 681 mmHg 81%
    07:00 +13°C° 0 mm 1 mps 681 mmHg 77%
    08:00 +16°C° 0 mm 1 mps 682 mmHg 68%
    09:00 +19°C° 0 mm 1 mps 682 mmHg 58%
    10:00 +22°C° 0 mm 1 mps 682 mmHg 49%
    11:00 +23°C° 0 mm 1 mps 682 mmHg 46%
    12:00 +24°C° 0 mm 1 mps 682 mmHg 43%
    13:00 +25°C° 0 mm 1 mps 682 mmHg 40%
    14:00 +24°C° 0 mm 1 mps 681 mmHg 43%
    15:00 +24°C° 0 mm 2 mps 681 mmHg 45%
    16:00 +24°C° 0 mm 2 mps 681 mmHg 48%
    17:00 +21°C° 0 mm 1 mps 680 mmHg 60%
    18:00 +19°C° 0 mm 1 mps 680 mmHg 73%
    19:00 +14°C° 0 mm 0 mps 679 mmHg 85%
    20:00 +14°C° 0 mm 1 mps 679 mmHg 85%
    21:00 +14°C° 0 mm 1 mps 679 mmHg 86%
    22:00 +13°C° 0 mm 1 mps 679 mmHg 86%
    23:00 +13°C° 0 mm 1 mps 679 mmHg 85%

    23 August, Wednesday

    Time Temperature Precipitation Wind Pressure Humidity
    00:00 +13°C° 0 mm 1 mps 679 mmHg 83%
    01:00 +12°C° 0 mm 1 mps 679 mmHg 82%
    02:00 +12°C° 0 mm 1 mps 679 mmHg 80%
    03:00 +12°C° 0 mm 1 mps 679 mmHg 79%
    04:00 +12°C° 0 mm 1 mps 678 mmHg 77%
    05:00 +14°C° 0 mm 1 mps 679 mmHg 73%
    06:00 +15°C° 0 mm 1 mps 679 mmHg 69%
    07:00 +16°C° 0 mm 1 mps 679 mmHg 65%
    08:00 +20°C° 0 mm 1 mps 680 mmHg 56%
    09:00 +23°C° 0 mm 1 mps 680 mmHg 46%
    10:00 +24°C° 0 mm 0 mps 681 mmHg 37%
    11:00 +27°C° 0 mm 1 mps 681 mmHg 36%
    12:00 +27°C° 0 mm 1 mps 680 mmHg 36%
    13:00 +28°C° 0 mm 1 mps 680 mmHg 36%
    14:00 +27°C° 0 mm 1 mps 680 mmHg 40%
    15:00 +26°C° 0 mm 1 mps 680 mmHg 45%
    16:00 +26°C° 0 mm 1 mps 679 mmHg 49%
    17:00 +24°C° 0.1 mm 1 mps 679 mmHg 57%
    18:00 +21°C° 0.1 mm 1 mps 679 mmHg 65%
    19:00 +19°C° 0.1 mm 1 mps 678 mmHg 74%
    20:00 +19°C° 0.4 mm 1 mps 678 mmHg 76%
    21:00 +18°C° 0.4 mm 1 mps 678 mmHg 78%
    22:00 +16°C° 0.4 mm 2 mps 679 mmHg 80%
    23:00 +16°C° 0.2 mm 2 mps 678 mmHg 81%
    Show more